{"data":{"norad_id":65206,"epoch":"2026-09-20T21:14:37.407552Z","epoch_age_seconds":87629,"freshness":"FRESH","line1":"1 65206U 25176J   26263.88515518  .00020964  00000+0  62988-3 0  9996","line2":"2 65206  53.1610 321.9592 0001008  80.5935 279.5181 15.34398421 63054","mean_motion":15.34398421,"eccentricity":0.0001008,"inclination_deg":53.161,"raan_deg":321.9592,"arg_perigee_deg":80.5935,"mean_anomaly_deg":279.5181,"bstar":0.00062988,"rev_number":6305,"period_min":93.84785465704,"perigee_km":462.01837616261,"apogee_km":463.39749050117,"semimajor_km":6840.8449333319,"source":"CELESTRAK","updated_at":"2026-09-21T09:00:35.534838Z"}}